| time (UTC) | temp F | wind direction | speed MPH | gust MPH | rain 1hr in | rain 24hr in | rain mn in | humidity % | barometer mb |
| 20260509113059 | 74 | 0 | 0.0 | 0.0 | 0.00 | 0.00 | 0.00 | 58 | 1008.5 |
| 20260509113031 | 74 | 190 | 0.0 | 0.0 | 0.00 | 0.00 | 0.00 | 58 | 1008.9 |
| 20260509112530 | 74 | 190 | 0.0 | 0.0 | 0.00 | 0.00 | 0.00 | 58 | 1008.8 |
| 20260509112030 | 75 | 190 | 0.0 | 0.0 | 0.00 | 0.00 | 0.00 | 58 | 1008.7 |
| 20260509111559 | 75 | 0 | 0.0 | 0.0 | 0.00 | 0.00 | 0.00 | 56 | 1008.2 |
| 20260509111531 | 75 | 190 | 0.0 | 0.0 | 0.00 | 0.00 | 0.00 | 57 | 1008.7 |
| 20260509111030 | 75 | 190 | 0.0 | 0.0 | 0.00 | 0.00 | 0.00 | 57 | 1008.7 |
| 20260509110529 | 74 | 190 | 0.0 | 0.0 | 0.00 | 0.00 | 0.00 | 58 | 1008.6 |
| 20260509110029 | 74 | 190 | 0.0 | 1.0 | 0.00 | 0.00 | 0.00 | 57 | 1008.6 |
| 20260509105528 | 74 | 190 | 0.0 | 2.0 | 0.00 | 0.00 | 0.00 | 57 | 1008.6 |
| 20260509105028 | 75 | 190 | 0.0 | 2.0 | 0.00 | 0.00 | 0.00 | 56 | 1008.5 |
| 20260509104600 | 75 | 0 | 0.0 | 2.0 | 0.00 | 0.00 | 0.00 | 55 | 1008.1 |
| 20260509104527 | 75 | 190 | 0.0 | 1.0 | 0.00 | 0.00 | 0.00 | 56 | 1008.5 |
| 20260509104026 | 75 | 190 | 0.0 | 3.0 | 0.00 | 0.00 | 0.00 | 56 | 1008.5 |
| 20260509103525 | 75 | 190 | 1.0 | 3.0 | 0.00 | 0.00 | 0.00 | 55 | 1008.5 |
| 20260509103104 | 76 | 190 | 0.0 | 3.0 | 0.00 | 0.00 | 0.00 | 55 | 1008.1 |
| 20260509103023 | 76 | 190 | 0.0 | 3.0 | 0.00 | 0.00 | 0.00 | 55 | 1008.4 |
| 20260509102522 | 77 | 190 | 1.0 | 3.0 | 0.00 | 0.00 | 0.00 | 56 | 1008.5 |
| 20260509102021 | 77 | 190 | 0.0 | 0.0 | 0.00 | 0.00 | 0.00 | 55 | 1008.5 |
| 20260509101603 | 77 | 0 | 0.0 | 0.0 | 0.00 | 0.00 | 0.00 | 55 | 1008.3 |
| 20260509101520 | 77 | 190 | 0.0 | 0.0 | 0.00 | 0.00 | 0.00 | 55 | 1008.6 |
| 20260509101019 | 77 | 190 | 0.0 | 0.0 | 0.00 | 0.00 | 0.00 | 54 | 1008.6 |
| 20260509100517 | 78 | 190 | 0.0 | 0.0 | 0.00 | 0.00 | 0.00 | 54 | 1008.6 |
| 20260509100057 | 78 | 0 | 0.0 | 0.0 | 0.00 | 0.00 | 0.00 | 53 | 1008.3 |
| 20260509100021 | 78 | 190 | 0.0 | 0.0 | 0.00 | 0.00 | 0.00 | 53 | 1008.6 |
| 20260509095517 | 78 | 190 | 0.0 | 0.0 | 0.00 | 0.00 | 0.00 | 53 | 1008.7 |
| 20260509095019 | 78 | 190 | 0.0 | 0.0 | 0.00 | 0.00 | 0.00 | 53 | 1008.7 |
| 20260509094601 | 78 | 0 | 0.0 | 0.0 | 0.00 | 0.00 | 0.00 | 53 | 1008.5 |
| 20260509094515 | 78 | 190 | 0.0 | 0.0 | 0.00 | 0.00 | 0.00 | 53 | 1008.8 |
| 20260509094015 | 78 | 190 | 0.0 | 0.0 | 0.00 | 0.00 | 0.00 | 53 | 1008.7 |
| 20260509093515 | 78 | 190 | 0.0 | 0.0 | 0.00 | 0.00 | 0.00 | 52 | 1008.7 |
| 20260509093058 | 79 | 0 | 0.0 | 0.0 | 0.00 | 0.00 | 0.00 | 52 | 1008.5 |
| 20260509093014 | 78 | 190 | 0.0 | 0.0 | 0.00 | 0.00 | 0.00 | 53 | 1008.7 |
| 20260509092520 | 79 | 190 | 0.0 | 0.0 | 0.00 | 0.00 | 0.00 | 52 | 1008.7 |
| 20260509092013 | 79 | 190 | 0.0 | 0.0 | 0.00 | 0.00 | 0.00 | 52 | 1008.7 |
| 20260509091632 | 79 | 0 | 0.0 | 0.0 | 0.00 | 0.00 | 0.00 | 52 | 1008.6 |
| 20260509091513 | 79 | 190 | 0.0 | 0.0 | 0.00 | 0.00 | 0.00 | 52 | 1008.7 |
| 20260509091014 | 79 | 190 | 0.0 | 0.0 | 0.00 | 0.00 | 0.00 | 52 | 1008.7 |
| 20260509090511 | 79 | 190 | 0.0 | 0.0 | 0.00 | 0.00 | 0.00 | 51 | 1008.7 |
| 20260509090057 | 79 | 0 | 0.0 | 0.0 | 0.00 | 0.00 | 0.00 | 51 | 1008.5 |
| 20260509090012 | 79 | 190 | 0.0 | 0.0 | 0.00 | 0.00 | 0.00 | 51 | 1008.8 |
| 20260509085511 | 79 | 190 | 0.0 | 0.0 | 0.00 | 0.00 | 0.00 | 51 | 1008.7 |
| 20260509085010 | 79 | 190 | 0.0 | 0.0 | 0.00 | 0.00 | 0.00 | 51 | 1008.8 |
| 20260509084557 | 79 | 0 | 0.0 | 0.0 | 0.00 | 0.00 | 0.00 | 50 | 1008.8 |
| 20260509084517 | 79 | 190 | 0.0 | 0.0 | 0.00 | 0.00 | 0.00 | 51 | 1008.9 |
| 20260509084013 | 79 | 190 | 0.0 | 0.0 | 0.00 | 0.00 | 0.00 | 50 | 1008.9 |
| 20260509083507 | 79 | 190 | 0.0 | 0.0 | 0.00 | 0.00 | 0.00 | 50 | 1008.9 |
| 20260509083100 | 80 | 0 | 0.0 | 0.0 | 0.00 | 0.00 | 0.00 | 50 | 1008.8 |
| 20260509083015 | 80 | 190 | 0.0 | 0.0 | 0.00 | 0.00 | 0.00 | 50 | 1009.0 |
| 20260509082509 | 80 | 190 | 0.0 | 0.0 | 0.00 | 0.00 | 0.00 | 50 | 1009.0 |
| 20260509082005 | 80 | 190 | 0.0 | 3.0 | 0.00 | 0.00 | 0.00 | 49 | 1009.0 |
| 20260509081558 | 80 | 0 | 1.0 | 3.0 | 0.00 | 0.00 | 0.00 | 49 | 1008.9 |
| 20260509081511 | 80 | 190 | 1.0 | 3.0 | 0.00 | 0.00 | 0.00 | 49 | 1009.1 |
| 20260509081004 | 80 | 190 | 1.0 | 3.0 | 0.00 | 0.00 | 0.00 | 49 | 1009.1 |
| 20260509080504 | 80 | 190 | 0.0 | 4.0 | 0.00 | 0.00 | 0.00 | 49 | 1009.2 |
| 20260509080107 | 80 | 0 | 1.0 | 4.0 | 0.00 | 0.00 | 0.00 | 48 | 1009.0 |
| 20260509080003 | 80 | 190 | 1.0 | 4.0 | 0.00 | 0.00 | 0.00 | 49 | 1009.1 |
| 20260509075502 | 81 | 190 | 0.0 | 4.0 | 0.00 | 0.00 | 0.00 | 48 | 1009.1 |
| 20260509075002 | 81 | 190 | 2.0 | 4.0 | 0.00 | 0.00 | 0.00 | 48 | 1009.1 |
| 20260509074601 | 81 | 190 | 2.0 | 3.0 | 0.00 | 0.00 | 0.00 | 48 | 1009.1 |
| 20260509074059 | 81 | 190 | 0.0 | 2.0 | 0.00 | 0.00 | 0.00 | 48 | 1009.2 |
| 20260509073558 | 81 | 190 | 0.0 | 2.0 | 0.00 | 0.00 | 0.00 | 48 | 1009.1 |
| 20260509073141 | 82 | 190 | 0.0 | 3.0 | 0.00 | 0.00 | 0.00 | 47 | 1009.1 |
| 20260509073058 | 82 | 190 | 0.0 | 3.0 | 0.00 | 0.00 | 0.00 | 48 | 1009.2 |
| 20260509072557 | 82 | 190 | 0.0 | 3.0 | 0.00 | 0.00 | 0.00 | 48 | 1009.2 |
| 20260509072056 | 82 | 190 | 0.0 | 4.0 | 0.00 | 0.00 | 0.00 | 48 | 1009.3 |
| 20260509071559 | 82 | 190 | 1.0 | 5.0 | 0.00 | 0.00 | 0.00 | 47 | 1009.2 |
| 20260509071053 | 82 | 190 | 1.0 | 5.0 | 0.00 | 0.00 | 0.00 | 47 | 1009.4 |
| 20260509070552 | 82 | 190 | 0.0 | 3.0 | 0.00 | 0.00 | 0.00 | 47 | 1009.6 |
| 20260509070059 | 82 | 190 | 0.0 | 2.0 | 0.00 | 0.00 | 0.00 | 47 | 1009.7 |
| 20260509065551 | 82 | 190 | 0.0 | 5.0 | 0.00 | 0.00 | 0.00 | 47 | 1009.7 |
| 20260509065051 | 82 | 190 | 1.0 | 4.0 | 0.00 | 0.00 | 0.00 | 47 | 1009.7 |
| 20260509064558 | 83 | 0 | 0.0 | 3.0 | 0.00 | 0.00 | 0.00 | 46 | 1009.6 |
| 20260509064553 | 83 | 190 | 0.0 | 3.0 | 0.00 | 0.00 | 0.00 | 47 | 1009.8 |
| 20260509064053 | 83 | 190 | 0.0 | 1.0 | 0.00 | 0.00 | 0.00 | 46 | 1009.7 |
| 20260509063553 | 83 | 190 | 0.0 | 2.0 | 0.00 | 0.00 | 0.00 | 46 | 1009.8 |
| 20260509063059 | 83 | 0 | 0.0 | 3.0 | 0.00 | 0.00 | 0.00 | 45 | 1009.6 |
| 20260509063048 | 83 | 190 | 0.0 | 2.0 | 0.00 | 0.00 | 0.00 | 45 | 1009.7 |
| 20260509062547 | 83 | 190 | 0.0 | 3.0 | 0.00 | 0.00 | 0.00 | 45 | 1009.7 |
| 20260509062046 | 84 | 190 | 0.0 | 3.0 | 0.00 | 0.00 | 0.00 | 44 | 1009.8 |
| 20260509061602 | 84 | 0 | 0.0 | 3.0 | 0.00 | 0.00 | 0.00 | 43 | 1009.7 |
| 20260509061558 | 84 | 190 | 0.0 | 3.0 | 0.00 | 0.00 | 0.00 | 44 | 1009.9 |
| 20260509061045 | 84 | 190 | 0.0 | 4.0 | 0.00 | 0.00 | 0.00 | 44 | 1009.9 |
| 20260509060544 | 84 | 190 | 0.0 | 4.0 | 0.00 | 0.00 | 0.00 | 44 | 1009.8 |
| 20260509060105 | 84 | 190 | 0.0 | 3.0 | 0.00 | 0.00 | 0.00 | 43 | 1009.6 |
| 20260509060059 | 84 | 190 | 0.0 | 3.0 | 0.00 | 0.00 | 0.00 | 43 | 1009.7 |
| 20260509055542 | 84 | 190 | 0.0 | 0.0 | 0.00 | 0.00 | 0.00 | 43 | 1009.7 |
| 20260509055042 | 84 | 190 | 0.0 | 4.0 | 0.00 | 0.00 | 0.00 | 43 | 1009.7 |
| 20260509054613 | 84 | 0 | 0.0 | 4.0 | 0.00 | 0.00 | 0.00 | 42 | 1009.7 |
| 20260509054548 | 84 | 190 | 0.0 | 4.0 | 0.00 | 0.00 | 0.00 | 42 | 1009.8 |
| 20260509054042 | 84 | 190 | 0.0 | 4.0 | 0.00 | 0.00 | 0.00 | 42 | 1009.8 |
| 20260509053543 | 84 | 190 | 0.0 | 4.0 | 0.00 | 0.00 | 0.00 | 43 | 1009.8 |
| 20260509053104 | 85 | 0 | 1.0 | 5.0 | 0.00 | 0.00 | 0.00 | 42 | 1009.6 |
| 20260509053042 | 85 | 190 | 0.0 | 5.0 | 0.00 | 0.00 | 0.00 | 43 | 1009.8 |
| 20260509052544 | 85 | 190 | 1.0 | 5.0 | 0.00 | 0.00 | 0.00 | 43 | 1009.7 |
| 20260509052041 | 85 | 190 | 1.0 | 9.0 | 0.00 | 0.00 | 0.00 | 43 | 1009.7 |
| 20260509051559 | 85 | 190 | 0.0 | 6.0 | 0.00 | 0.00 | 0.00 | 42 | 1009.5 |
| 20260509051540 | 85 | 190 | 1.0 | 9.0 | 0.00 | 0.00 | 0.00 | 43 | 1009.7 |
| 20260509051042 | 85 | 190 | 1.0 | 6.0 | 0.00 | 0.00 | 0.00 | 43 | 1009.7 |
| 20260509050541 | 85 | 190 | 1.0 | 6.0 | 0.00 | 0.00 | 0.00 | 43 | 1009.7 |
| 20260509050059 | 85 | 190 | 0.0 | 3.0 | 0.00 | 0.00 | 0.00 | 42 | 1009.4 |
| 20260509045540 | 85 | 190 | 0.0 | 6.0 | 0.00 | 0.00 | 0.00 | 42 | 1009.6 |
| 20260509045040 | 85 | 190 | 0.0 | 7.0 | 0.00 | 0.00 | 0.00 | 42 | 1009.4 |
| 20260509044558 | 85 | 190 | 1.0 | 7.0 | 0.00 | 0.00 | 0.00 | 41 | 1009.0 |
| 20260509044553 | 85 | 190 | 1.0 | 7.0 | 0.00 | 0.00 | 0.00 | 42 | 1009.2 |
| 20260509044041 | 84 | 190 | 0.0 | 3.0 | 0.00 | 0.00 | 0.00 | 42 | 1009.1 |
| 20260509043540 | 84 | 190 | 0.0 | 3.0 | 0.00 | 0.00 | 0.00 | 41 | 1008.9 |
| 20260509043058 | 84 | 190 | 0.0 | 5.0 | 0.00 | 0.00 | 0.00 | 40 | 1008.7 |
| 20260509043040 | 84 | 190 | 0.0 | 5.0 | 0.00 | 0.00 | 0.00 | 40 | 1008.9 |
| 20260509042539 | 84 | 190 | 2.0 | 5.0 | 0.00 | 0.00 | 0.00 | 40 | 1008.8 |
| 20260509042038 | 84 | 190 | 0.0 | 5.0 | 0.00 | 0.00 | 0.00 | 40 | 1008.6 |
| 20260509041556 | 85 | 0 | 0.0 | 3.0 | 0.00 | 0.00 | 0.00 | 38 | 1008.4 |
| 20260509041538 | 85 | 190 | 0.0 | 3.0 | 0.00 | 0.00 | 0.00 | 38 | 1008.5 |
| 20260509041039 | 85 | 190 | 1.0 | 3.0 | 0.00 | 0.00 | 0.00 | 39 | 1008.4 |
| 20260509040538 | 85 | 190 | 1.0 | 3.0 | 0.00 | 0.00 | 0.00 | 38 | 1008.3 |
| 20260509040125 | 86 | 0 | 0.0 | 0.0 | 0.00 | 0.00 | 0.00 | 38 | 1008.1 |
| 20260509040040 | 86 | 190 | 0.0 | 0.0 | 0.00 | 0.00 | 0.00 | 38 | 1008.2 |
| 20260509035540 | 86 | 190 | 0.0 | 0.0 | 0.00 | 0.00 | 0.00 | 39 | 1008.1 |
| 20260509035038 | 86 | 190 | 0.0 | 0.0 | 0.00 | 0.00 | 0.00 | 39 | 1008.0 |
| 20260509034601 | 86 | 0 | 0.0 | 0.0 | 0.00 | 0.00 | 0.00 | 38 | 1007.8 |
| 20260509034537 | 86 | 190 | 0.0 | 0.0 | 0.00 | 0.00 | 0.00 | 39 | 1007.9 |
| 20260509034037 | 86 | 190 | 0.0 | 0.0 | 0.00 | 0.00 | 0.00 | 39 | 1007.8 |
| 20260509033537 | 86 | 190 | 0.0 | 0.0 | 0.00 | 0.00 | 0.00 | 39 | 1007.8 |
| 20260509033058 | 87 | 0 | 0.0 | 1.0 | 0.00 | 0.00 | 0.00 | 38 | 1007.6 |
| 20260509033040 | 86 | 190 | 0.0 | 1.0 | 0.00 | 0.00 | 0.00 | 38 | 1007.6 |
| 20260509032538 | 86 | 190 | 0.0 | 1.0 | 0.00 | 0.00 | 0.00 | 38 | 1007.5 |
| 20260509032037 | 87 | 190 | 0.0 | 0.0 | 0.00 | 0.00 | 0.00 | 39 | 1007.3 |
| 20260509031602 | 87 | 0 | 0.0 | 0.0 | 0.00 | 0.00 | 0.00 | 38 | 1007.3 |
| 20260509031536 | 87 | 190 | 0.0 | 0.0 | 0.00 | 0.00 | 0.00 | 38 | 1007.2 |
| 20260509031036 | 87 | 190 | 0.0 | 0.0 | 0.00 | 0.00 | 0.00 | 39 | 1007.1 |
| 20260509030536 | 87 | 190 | 0.0 | 0.0 | 0.00 | 0.00 | 0.00 | 39 | 1006.9 |
| 20260509030100 | 87 | 0 | 0.0 | 3.0 | 0.00 | 0.00 | 0.00 | 40 | 1006.8 |
| 20260509030039 | 87 | 190 | 0.0 | 3.0 | 0.00 | 0.00 | 0.00 | 40 | 1006.8 |
| 20260509025535 | 88 | 190 | 0.0 | 3.0 | 0.00 | 0.00 | 0.00 | 40 | 1006.7 |
| 20260509025035 | 88 | 190 | 0.0 | 3.0 | 0.00 | 0.00 | 0.00 | 38 | 1006.6 |
| 20260509024602 | 88 | 0 | 0.0 | 3.0 | 0.00 | 0.00 | 0.00 | 37 | 1006.4 |
| 20260509024536 | 88 | 190 | 0.0 | 3.0 | 0.00 | 0.00 | 0.00 | 37 | 1006.4 |
| 20260509024036 | 88 | 190 | 0.0 | 0.0 | 0.00 | 0.00 | 0.00 | 37 | 1006.3 |
| 20260509023535 | 89 | 190 | 0.0 | 2.0 | 0.00 | 0.00 | 0.00 | 36 | 1006.2 |
| 20260509023058 | 89 | 0 | 0.0 | 5.0 | 0.00 | 0.00 | 0.00 | 36 | 1006.0 |
| 20260509023039 | 89 | 190 | 0.0 | 5.0 | 0.00 | 0.00 | 0.00 | 36 | 1006.0 |
| 20260509022535 | 89 | 190 | 2.0 | 5.0 | 0.00 | 0.00 | 0.00 | 36 | 1005.9 |
| 20260509022035 | 90 | 190 | 1.0 | 4.0 | 0.00 | 0.00 | 0.00 | 33 | 1005.7 |
| 20260509021559 | 90 | 190 | 0.0 | 4.0 | 0.00 | 0.00 | 0.00 | 33 | 1005.6 |
| 20260509021535 | 90 | 190 | 0.0 | 4.0 | 0.00 | 0.00 | 0.00 | 33 | 1005.6 |
| 20260509021035 | 90 | 190 | 1.0 | 4.0 | 0.00 | 0.00 | 0.00 | 33 | 1005.5 |
| 20260509020534 | 90 | 190 | 0.0 | 2.0 | 0.00 | 0.00 | 0.00 | 34 | 1005.3 |
| 20260509020058 | 91 | 190 | 0.0 | 3.0 | 0.00 | 0.00 | 0.00 | 33 | 1005.4 |
| 20260509020034 | 91 | 190 | 0.0 | 3.0 | 0.00 | 0.00 | 0.00 | 34 | 1005.4 |
| 20260509015534 | 91 | 190 | 1.0 | 3.0 | 0.00 | 0.00 | 0.00 | 34 | 1005.2 |
| 20260509015034 | 91 | 190 | 0.0 | 2.0 | 0.00 | 0.00 | 0.00 | 32 | 1005.1 |
| 20260509014556 | 91 | 0 | 0.0 | 0.0 | 0.00 | 0.00 | 0.00 | 33 | 1005.2 |
| 20260509014534 | 91 | 190 | 0.0 | 0.0 | 0.00 | 0.00 | 0.00 | 33 | 1005.0 |
| 20260509014033 | 91 | 190 | 0.0 | 0.0 | 0.00 | 0.00 | 0.00 | 33 | 1004.9 |
| 20260509013533 | 91 | 190 | 0.0 | 3.0 | 0.00 | 0.00 | 0.00 | 33 | 1004.9 |
| 20260509013059 | 91 | 0 | 1.0 | 3.0 | 0.00 | 0.00 | 0.00 | 33 | 1005.0 |
| 20260509013037 | 91 | 190 | 1.0 | 3.0 | 0.00 | 0.00 | 0.00 | 34 | 1004.8 |
| 20260509012533 | 92 | 190 | 0.0 | 2.0 | 0.00 | 0.00 | 0.00 | 34 | 1004.7 |
| 20260509012032 | 92 | 190 | 0.0 | 4.0 | 0.00 | 0.00 | 0.00 | 34 | 1004.6 |
| 20260509011606 | 92 | 190 | 1.0 | 5.0 | 0.00 | 0.00 | 0.00 | 32 | 1004.8 |
| 20260509011532 | 92 | 190 | 1.0 | 5.0 | 0.00 | 0.00 | 0.00 | 33 | 1004.6 |
| 20260509011032 | 92 | 190 | 0.0 | 5.0 | 0.00 | 0.00 | 0.00 | 33 | 1004.5 |
| 20260509010531 | 92 | 190 | 1.0 | 6.0 | 0.00 | 0.00 | 0.00 | 33 | 1004.3 |
| 20260509010058 | 93 | 190 | 2.0 | 8.0 | 0.00 | 0.00 | 0.00 | 33 | 1004.5 |
| 20260509010032 | 92 | 190 | 3.0 | 6.0 | 0.00 | 0.00 | 0.00 | 33 | 1004.4 |
| 20260509005532 | 93 | 190 | 3.0 | 9.0 | 0.00 | 0.00 | 0.00 | 33 | 1004.2 |
| 20260509005031 | 94 | 190 | 3.0 | 10.0 | 0.00 | 0.00 | 0.00 | 31 | 1004.1 |
| 20260509004611 | 95 | 190 | 5.0 | 12.0 | 0.00 | 0.00 | 0.00 | 28 | 1004.2 |
| 20260509004537 | 95 | 190 | 4.0 | 12.0 | 0.00 | 0.00 | 0.00 | 27 | 1004.0 |
| 20260509004031 | 95 | 190 | 4.0 | 13.0 | 0.00 | 0.00 | 0.00 | 27 | 1003.7 |
| 20260509003530 | 96 | 190 | 4.0 | 13.0 | 0.00 | 0.00 | 0.00 | 27 | 1003.5 |
| 20260509003058 | 96 | 190 | 4.0 | 11.0 | 0.00 | 0.00 | 0.00 | 26 | 1003.6 |
| 20260509003031 | 96 | 190 | 3.0 | 11.0 | 0.00 | 0.00 | 0.00 | 26 | 1003.4 |
| 20260509002530 | 96 | 190 | 4.0 | 12.0 | 0.00 | 0.00 | 0.00 | 26 | 1003.3 |
| 20260509002029 | 96 | 190 | 3.0 | 12.0 | 0.00 | 0.00 | 0.00 | 26 | 1003.1 |
| 20260509001559 | 97 | 190 | 4.0 | 9.0 | 0.00 | 0.00 | 0.00 | 25 | 1003.2 |
| 20260509001529 | 97 | 190 | 4.0 | 9.0 | 0.00 | 0.00 | 0.00 | 25 | 1002.9 |
| 20260509001029 | 97 | 190 | 2.0 | 9.0 | 0.00 | 0.00 | 0.00 | 26 | 1002.8 |
| 20260509000529 | 97 | 190 | 3.0 | 8.0 | 0.00 | 0.00 | 0.00 | 26 | 1002.7 |
| 20260509000059 | 98 | 190 | 3.0 | 10.0 | 0.00 | 0.00 | 0.00 | 25 | 1003.0 |
| 20260509000036 | 98 | 190 | 3.0 | 9.0 | 0.00 | 0.00 | 0.00 | 26 | 1002.6 |
| 20260508235531 | 98 | 190 | 4.0 | 10.0 | 0.00 | 0.00 | 0.00 | 25 | 1002.5 |
| 20260508235029 | 98 | 190 | 4.0 | 10.0 | 0.00 | 0.00 | 0.00 | 25 | 1002.4 |
| 20260508234559 | 98 | 190 | 4.0 | 10.0 | 0.00 | 0.00 | 0.00 | 24 | 1002.9 |
| 20260508234536 | 98 | 190 | 5.0 | 10.0 | 0.00 | 0.00 | 0.00 | 25 | 1002.5 |
| 20260508234028 | 99 | 190 | 5.0 | 10.0 | 0.00 | 0.00 | 0.00 | 24 | 1002.5 |
| 20260508233528 | 99 | 190 | 2.0 | 9.0 | 0.00 | 0.00 | 0.00 | 25 | 1002.4 |
| 20260508233059 | 99 | 190 | 4.0 | 10.0 | 0.00 | 0.00 | 0.00 | 24 | 1002.7 |
| 20260508233028 | 99 | 190 | 5.0 | 9.0 | 0.00 | 0.00 | 0.00 | 25 | 1002.2 |
| 20260508232530 | 100 | 190 | 2.0 | 10.0 | 0.00 | 0.00 | 0.00 | 24 | 1002.2 |
| 20260508232027 | 100 | 190 | 5.0 | 11.0 | 0.00 | 0.00 | 0.00 | 24 | 1002.1 |
| 20260508231557 | 100 | 190 | 4.0 | 12.0 | 0.00 | 0.00 | 0.00 | 24 | 1002.5 |
| 20260508231527 | 100 | 190 | 4.0 | 11.0 | 0.00 | 0.00 | 0.00 | 24 | 1002.1 |
| 20260508231027 | 100 | 190 | 0.0 | 12.0 | 0.00 | 0.00 | 0.00 | 24 | 1002.0 |
| 20260508230526 | 101 | 190 | 6.0 | 13.0 | 0.00 | 0.00 | 0.00 | 24 | 1002.2 |
| 20260508230104 | 101 | 190 | 6.0 | 13.0 | 0.00 | 0.00 | 0.00 | 24 | 1002.6 |
| 20260508230026 | 100 | 190 | 6.0 | 13.0 | 0.00 | 0.00 | 0.00 | 24 | 1002.2 |
| 20260508225526 | 101 | 190 | 5.0 | 12.0 | 0.00 | 0.00 | 0.00 | 24 | 1002.2 |
| 20260508225027 | 101 | 190 | 3.0 | 12.0 | 0.00 | 0.00 | 0.00 | 24 | 1002.2 |
| 20260508224603 | 101 | 190 | 0.0 | 9.0 | 0.00 | 0.00 | 0.00 | 24 | 1002.5 |
| 20260508224528 | 101 | 190 | 0.0 | 8.0 | 0.00 | 0.00 | 0.00 | 24 | 1002.1 |
| 20260508224026 | 101 | 190 | 1.0 | 12.0 | 0.00 | 0.00 | 0.00 | 24 | 1002.1 |
| 20260508223526 | 101 | 190 | 5.0 | 12.0 | 0.00 | 0.00 | 0.00 | 24 | 1002.1 |
| 20260508223101 | 101 | 190 | 3.0 | 10.0 | 0.00 | 0.00 | 0.00 | 24 | 1002.4 |
| 20260508223034 | 101 | 190 | 3.0 | 10.0 | 0.00 | 0.00 | 0.00 | 25 | 1002.0 |
| 20260508222526 | 101 | 190 | 3.0 | 10.0 | 0.00 | 0.00 | 0.00 | 25 | 1002.0 |
| 20260508222026 | 101 | 190 | 5.0 | 10.0 | 0.00 | 0.00 | 0.00 | 25 | 1002.0 |
| 20260508221605 | 101 | 190 | 2.0 | 7.0 | 0.00 | 0.00 | 0.00 | 24 | 1002.4 |
| 20260508221524 | 101 | 190 | 3.0 | 8.0 | 0.00 | 0.00 | 0.00 | 24 | 1002.0 |
| 20260508221022 | 101 | 190 | 3.0 | 7.0 | 0.00 | 0.00 | 0.00 | 25 | 1002.1 |
| 20260508220520 | 101 | 190 | 2.0 | 8.0 | 0.00 | 0.00 | 0.00 | 25 | 1002.1 |
| 20260508220113 | 100 | 190 | 4.0 | 10.0 | 0.00 | 0.00 | 0.00 | 25 | 1002.6 |
| 20260508220020 | 100 | 190 | 3.0 | 8.0 | 0.00 | 0.00 | 0.00 | 26 | 1002.2 |
| 20260508215519 | 100 | 190 | 0.0 | 10.0 | 0.00 | 0.00 | 0.00 | 25 | 1002.2 |
| 20260508215158 | 100 | 190 | 4.0 | 10.0 | 0.00 | 0.00 | 0.00 | 25 | 1002.4 |
| 20260508214606 | 100 | 190 | 5.0 | 10.0 | 0.00 | 0.00 | 0.00 | 23 | 1003.0 |
| 20260508214032 | 100 | 190 | 4.0 | 12.0 | 0.00 | 0.00 | 0.00 | 24 | 1002.7 |
| 20260508213057 | 100 | 190 | 3.0 | 10.0 | 0.00 | 0.00 | 0.00 | 24 | 1003.3 |
| 20260508213049 | 100 | 190 | 5.0 | 10.0 | 0.00 | 0.00 | 0.00 | 25 | 1003.0 |
| 20260508212549 | 100 | 190 | 0.0 | 12.0 | 0.00 | 0.00 | 0.00 | 24 | 1003.0 |
| 20260508212048 | 101 | 190 | 4.0 | 12.0 | 0.00 | 0.00 | 0.00 | 24 | 1003.2 |
| 20260508211602 | 102 | 190 | 3.0 | 7.0 | 0.00 | 0.00 | 0.00 | 23 | 1003.6 |
| 20260508211546 | 102 | 190 | 2.0 | 7.0 | 0.00 | 0.00 | 0.00 | 23 | 1003.3 |
| 20260508211047 | 101 | 190 | 0.0 | 6.0 | 0.00 | 0.00 | 0.00 | 25 | 1003.3 |
| 20260508210544 | 101 | 190 | 1.0 | 6.0 | 0.00 | 0.00 | 0.00 | 24 | 1003.5 |
| 20260508210042 | 101 | 190 | 1.0 | 7.0 | 0.00 | 0.00 | 0.00 | 24 | 1003.5 |
| 20260508205545 | 100 | 190 | 2.0 | 9.0 | 0.00 | 0.00 | 0.00 | 25 | 1003.6 |
| 20260508205041 | 100 | 190 | 1.0 | 10.0 | 0.00 | 0.00 | 0.00 | 25 | 1003.7 |
| 20260508204601 | 100 | 190 | 3.0 | 11.0 | 0.00 | 0.00 | 0.00 | 25 | 1004.2 |
| 20260508204542 | 100 | 190 | 0.0 | 11.0 | 0.00 | 0.00 | 0.00 | 26 | 1003.9 |
| 20260508204039 | 100 | 190 | 5.0 | 11.0 | 0.00 | 0.00 | 0.00 | 25 | 1004.1 |
| 20260508203537 | 100 | 190 | 1.0 | 7.0 | 0.00 | 0.00 | 0.00 | 26 | 1004.2 |
| 20260508203102 | 99 | 0 | 3.0 | 9.0 | 0.00 | 0.00 | 0.00 | 25 | 1004.7 |
| 20260508203036 | 99 | 190 | 2.0 | 9.0 | 0.00 | 0.00 | 0.00 | 26 | 1004.2 |
| 20260508202535 | 99 | 190 | 0.0 | 11.0 | 0.00 | 0.00 | 0.00 | 27 | 1004.4 |
| 20260508202033 | 99 | 190 | 1.0 | 11.0 | 0.00 | 0.00 | 0.00 | 27 | 1004.4 |
| 20260508201600 | 99 | 190 | 4.0 | 7.0 | 0.00 | 0.00 | 0.00 | 27 | 1004.9 |
| 20260508201531 | 99 | 190 | 3.0 | 7.0 | 0.00 | 0.00 | 0.00 | 28 | 1004.6 |
| 20260508201030 | 98 | 190 | 3.0 | 10.0 | 0.00 | 0.00 | 0.00 | 28 | 1004.7 |
| 20260508200529 | 98 | 190 | 4.0 | 12.0 | 0.00 | 0.00 | 0.00 | 28 | 1004.8 |
| 20260508200056 | 99 | 190 | 2.0 | 6.0 | 0.00 | 0.00 | 0.00 | 28 | 1005.4 |
| 20260508200032 | 99 | 190 | 2.0 | 6.0 | 0.00 | 0.00 | 0.00 | 28 | 1005.0 |
| 20260508195526 | 98 | 190 | 1.0 | 7.0 | 0.00 | 0.00 | 0.00 | 29 | 1005.1 |
| 20260508195025 | 98 | 190 | 1.0 | 11.0 | 0.00 | 0.00 | 0.00 | 30 | 1005.2 |
| 20260508194615 | 98 | 190 | 4.0 | 11.0 | 0.00 | 0.00 | 0.00 | 29 | 1005.6 |
| 20260508194543 | 97 | 190 | 4.0 | 11.0 | 0.00 | 0.00 | 0.00 | 30 | 1005.3 |
| 20260508194023 | 97 | 190 | 0.0 | 10.0 | 0.00 | 0.00 | 0.00 | 30 | 1005.4 |
| 20260508193522 | 97 | 190 | 2.0 | 11.0 | 0.00 | 0.00 | 0.00 | 30 | 1005.6 |
| 20260508193110 | 97 | 190 | 4.0 | 11.0 | 0.00 | 0.00 | 0.00 | 30 | 1005.9 |
| 20260508193022 | 97 | 190 | 6.0 | 11.0 | 0.00 | 0.00 | 0.00 | 30 | 1005.7 |
| 20260508192521 | 97 | 190 | 1.0 | 6.0 | 0.00 | 0.00 | 0.00 | 30 | 1005.8 |
| 20260508192021 | 97 | 190 | 0.0 | 7.0 | 0.00 | 0.00 | 0.00 | 31 | 1005.9 |
| 20260508191601 | 97 | 190 | 1.0 | 5.0 | 0.00 | 0.00 | 0.00 | 30 | 1006.2 |
| 20260508191518 | 96 | 190 | 1.0 | 5.0 | 0.00 | 0.00 | 0.00 | 31 | 1006.0 |
| 20260508191018 | 96 | 190 | 2.0 | 5.0 | 0.00 | 0.00 | 0.00 | 30 | 1006.2 |
| 20260508190516 | 96 | 190 | 0.0 | 11.0 | 0.00 | 0.00 | 0.00 | 32 | 1006.3 |
| 20260508190057 | 96 | 190 | 5.0 | 11.0 | 0.00 | 0.00 | 0.00 | 32 | 1006.7 |
| 20260508190015 | 96 | 190 | 3.0 | 11.0 | 0.00 | 0.00 | 0.00 | 32 | 1006.5 |
| 20260508185514 | 96 | 190 | 3.0 | 9.0 | 0.00 | 0.00 | 0.00 | 33 | 1006.5 |
| 20260508185013 | 95 | 190 | 3.0 | 9.0 | 0.00 | 0.00 | 0.00 | 34 | 1006.5 |
| 20260508184609 | 96 | 190 | 3.0 | 7.0 | 0.00 | 0.00 | 0.00 | 34 | 1006.9 |
| 20260508184513 | 96 | 190 | 2.0 | 7.0 | 0.00 | 0.00 | 0.00 | 34 | 1006.7 |
| 20260508184012 | 95 | 190 | 2.0 | 9.0 | 0.00 | 0.00 | 0.00 | 34 | 1006.7 |
| 20260508183510 | 95 | 190 | 1.0 | 11.0 | 0.00 | 0.00 | 0.00 | 34 | 1006.9 |
| 20260508183057 | 95 | 0 | 3.0 | 11.0 | 0.00 | 0.00 | 0.00 | 34 | 1007.2 |
| 20260508183009 | 95 | 190 | 2.0 | 11.0 | 0.00 | 0.00 | 0.00 | 34 | 1007.0 |
| 20260508182510 | 94 | 190 | 0.0 | 6.0 | 0.00 | 0.00 | 0.00 | 35 | 1007.0 |
| 20260508182006 | 95 | 190 | 2.0 | 6.0 | 0.00 | 0.00 | 0.00 | 33 | 1007.2 |
| 20260508181608 | 94 | 0 | 0.0 | 7.0 | 0.00 | 0.00 | 0.00 | 33 | 1007.5 |
| 20260508181505 | 94 | 190 | 0.0 | 7.0 | 0.00 | 0.00 | 0.00 | 34 | 1007.2 |
| 20260508181006 | 94 | 190 | 1.0 | 7.0 | 0.00 | 0.00 | 0.00 | 35 | 1007.4 |
| 20260508180504 | 94 | 190 | 1.0 | 5.0 | 0.00 | 0.00 | 0.00 | 34 | 1007.5 |
| 20260508180101 | 94 | 190 | 1.0 | 7.0 | 0.00 | 0.00 | 0.00 | 35 | 1007.7 |
| 20260508180002 | 94 | 190 | 1.0 | 7.0 | 0.00 | 0.00 | 0.00 | 36 | 1007.6 |
| 20260508175501 | 94 | 190 | 1.0 | 6.0 | 0.00 | 0.00 | 0.00 | 36 | 1007.7 |
| 20260508175101 | 93 | 190 | 0.0 | 6.0 | 0.00 | 0.00 | 0.00 | 36 | 1007.8 |
| 20260508174604 | 93 | 190 | 1.0 | 5.0 | 0.00 | 0.00 | 0.00 | 36 | 1007.8 |
| 20260508174100 | 93 | 190 | 2.0 | 6.0 | 0.00 | 0.00 | 0.00 | 36 | 1007.9 |
| 20260508173558 | 93 | 190 | 0.0 | 8.0 | 0.00 | 0.00 | 0.00 | 37 | 1008.1 |
| 20260508173058 | 93 | 190 | 3.0 | 8.0 | 0.00 | 0.00 | 0.00 | 36 | 1008.2 |
| 20260508173056 | 93 | 190 | 4.0 | 8.0 | 0.00 | 0.00 | 0.00 | 37 | 1008.2 |
| 20260508172554 | 92 | 190 | 0.0 | 5.0 | 0.00 | 0.00 | 0.00 | 37 | 1008.2 |
| 20260508172053 | 91 | 190 | 1.0 | 6.0 | 0.00 | 0.00 | 0.00 | 38 | 1008.2 |
| 20260508171558 | 92 | 190 | 1.0 | 6.0 | 0.00 | 0.00 | 0.00 | 37 | 1008.5 |
| 20260508171553 | 92 | 190 | 3.0 | 6.0 | 0.00 | 0.00 | 0.00 | 37 | 1008.4 |
| 20260508171050 | 91 | 190 | 0.0 | 6.0 | 0.00 | 0.00 | 0.00 | 38 | 1008.5 |
| 20260508170550 | 91 | 190 | 0.0 | 3.0 | 0.00 | 0.00 | 0.00 | 39 | 1008.6 |
| 20260508170058 | 91 | 190 | 0.0 | 6.0 | 0.00 | 0.00 | 0.00 | 39 | 1008.8 |
| 20260508170048 | 90 | 190 | 0.0 | 4.0 | 0.00 | 0.00 | 0.00 | 40 | 1008.7 |
| 20260508165547 | 90 | 190 | 2.0 | 6.0 | 0.00 | 0.00 | 0.00 | 40 | 1008.8 |
| 20260508165046 | 90 | 190 | 2.0 | 6.0 | 0.00 | 0.00 | 0.00 | 40 | 1009.0 |
| 20260508164600 | 89 | 0 | 0.0 | 5.0 | 0.00 | 0.00 | 0.00 | 41 | 1009.1 |
| 20260508164549 | 89 | 190 | 0.0 | 4.0 | 0.00 | 0.00 | 0.00 | 42 | 1009.0 |
| 20260508164044 | 88 | 190 | 0.0 | 5.0 | 0.00 | 0.00 | 0.00 | 42 | 1009.2 |
| 20260508163545 | 89 | 190 | 1.0 | 5.0 | 0.00 | 0.00 | 0.00 | 42 | 1009.2 |
| 20260508163058 | 89 | 190 | 2.0 | 5.0 | 0.00 | 0.00 | 0.00 | 41 | 1009.2 |
| 20260508163044 | 89 | 190 | 2.0 | 5.0 | 0.00 | 0.00 | 0.00 | 42 | 1009.3 |
| 20260508162544 | 88 | 190 | 0.0 | 2.0 | 0.00 | 0.00 | 0.00 | 43 | 1009.3 |
| 20260508162041 | 87 | 190 | 0.0 | 4.0 | 0.00 | 0.00 | 0.00 | 44 | 1009.4 |
| 20260508161559 | 87 | 0 | 1.0 | 4.0 | 0.00 | 0.00 | 0.00 | 44 | 1009.5 |
| 20260508161542 | 87 | 190 | 1.0 | 4.0 | 0.00 | 0.00 | 0.00 | 44 | 1009.6 |
| 20260508161043 | 87 | 190 | 1.0 | 3.0 | 0.00 | 0.00 | 0.00 | 44 | 1009.8 |
| 20260508160541 | 86 | 190 | 0.0 | 3.0 | 0.00 | 0.00 | 0.00 | 45 | 1009.9 |
| 20260508160131 | 86 | 0 | 0.0 | 3.0 | 0.00 | 0.00 | 0.00 | 45 | 1009.8 |
| 20260508160039 | 86 | 190 | 0.0 | 3.0 | 0.00 | 0.00 | 0.00 | 46 | 1010.0 |
| 20260508155539 | 86 | 190 | 0.0 | 3.0 | 0.00 | 0.00 | 0.00 | 46 | 1010.0 |
| 20260508155037 | 85 | 190 | 1.0 | 3.0 | 0.00 | 0.00 | 0.00 | 47 | 1010.1 |
| 20260508154558 | 85 | 190 | 0.0 | 3.0 | 0.00 | 0.00 | 0.00 | 46 | 1009.9 |
| 20260508154537 | 85 | 190 | 1.0 | 3.0 | 0.00 | 0.00 | 0.00 | 47 | 1010.1 |
| 20260508154037 | 85 | 190 | 0.0 | 3.0 | 0.00 | 0.00 | 0.00 | 47 | 1010.2 |
| 20260508153537 | 85 | 190 | 1.0 | 3.0 | 0.00 | 0.00 | 0.00 | 47 | 1010.3 |
| 20260508153059 | 85 | 0 | 0.0 | 3.0 | 0.00 | 0.00 | 0.00 | 48 | 1010.2 |
| 20260508153044 | 84 | 190 | 0.0 | 3.0 | 0.00 | 0.00 | 0.00 | 48 | 1010.3 |
| 20260508152535 | 84 | 190 | 0.0 | 3.0 | 0.00 | 0.00 | 0.00 | 48 | 1010.4 |
| 20260508152033 | 84 | 190 | 0.0 | 1.0 | 0.00 | 0.00 | 0.00 | 49 | 1010.4 |
| 20260508151600 | 84 | 0 | 0.0 | 4.0 | 0.00 | 0.00 | 0.00 | 49 | 1010.3 |
| 20260508151533 | 84 | 190 | 0.0 | 3.0 | 0.00 | 0.00 | 0.00 | 49 | 1010.4 |
| 20260508151031 | 83 | 190 | 1.0 | 4.0 | 0.00 | 0.00 | 0.00 | 50 | 1010.4 |
| 20260508150531 | 83 | 190 | 2.0 | 4.0 | 0.00 | 0.00 | 0.00 | 50 | 1010.5 |
| 20260508150059 | 83 | 0 | 0.0 | 2.0 | 0.00 | 0.00 | 0.00 | 50 | 1010.4 |
| 20260508150029 | 83 | 190 | 0.0 | 1.0 | 0.00 | 0.00 | 0.00 | 51 | 1010.5 |
| 20260508145528 | 82 | 190 | 0.0 | 2.0 | 0.00 | 0.00 | 0.00 | 51 | 1010.6 |
| 20260508145027 | 82 | 190 | 0.0 | 2.0 | 0.00 | 0.00 | 0.00 | 52 | 1010.6 |
| 20260508144630 | 81 | 190 | 0.0 | 2.0 | 0.00 | 0.00 | 0.00 | 52 | 1010.6 |
| 20260508144556 | 82 | 0 | 0.0 | 2.0 | 0.00 | 0.00 | 0.00 | 52 | 1010.6 |
| 20260508144028 | 81 | 190 | 0.0 | 2.0 | 0.00 | 0.00 | 0.00 | 53 | 1010.7 |
| 20260508143527 | 81 | 190 | 0.0 | 2.0 | 0.00 | 0.00 | 0.00 | 53 | 1010.7 |
| 20260508143106 | 81 | 0 | 0.0 | 0.0 | 0.00 | 0.00 | 0.00 | 53 | 1010.5 |
| 20260508143029 | 81 | 190 | 0.0 | 1.0 | 0.00 | 0.00 | 0.00 | 53 | 1010.6 |
| 20260508142527 | 80 | 190 | 0.0 | 0.0 | 0.00 | 0.00 | 0.00 | 54 | 1010.6 |
| 20260508142027 | 80 | 190 | 0.0 | 0.0 | 0.00 | 0.00 | 0.00 | 54 | 1010.6 |
| 20260508141610 | 79 | 0 | 0.0 | 0.0 | 0.00 | 0.00 | 0.00 | 57 | 1010.5 |
| 20260508141526 | 79 | 190 | 0.0 | 0.0 | 0.00 | 0.00 | 0.00 | 57 | 1010.6 |
| 20260508141026 | 78 | 190 | 0.0 | 0.0 | 0.00 | 0.00 | 0.00 | 58 | 1010.6 |
| 20260508140526 | 78 | 190 | 0.0 | 1.0 | 0.00 | 0.00 | 0.00 | 59 | 1010.7 |
| 20260508140058 | 77 | 0 | 0.0 | 1.0 | 0.00 | 0.00 | 0.00 | 59 | 1010.4 |
| 20260508140029 | 77 | 190 | 0.0 | 1.0 | 0.00 | 0.00 | 0.00 | 60 | 1010.6 |
| 20260508135528 | 77 | 190 | 0.0 | 0.0 | 0.00 | 0.00 | 0.00 | 61 | 1010.6 |
| 20260508135026 | 76 | 190 | 0.0 | 0.0 | 0.00 | 0.00 | 0.00 | 62 | 1010.6 |
| 20260508134559 | 75 | 0 | 0.0 | 1.0 | 0.00 | 0.00 | 0.00 | 62 | 1010.3 |
| 20260508134525 | 75 | 190 | 0.0 | 0.0 | 0.00 | 0.00 | 0.00 | 63 | 1010.7 |
| 20260508134025 | 75 | 190 | 0.0 | 3.0 | 0.00 | 0.00 | 0.00 | 63 | 1010.7 |
| 20260508133525 | 74 | 190 | 1.0 | 3.0 | 0.00 | 0.00 | 0.00 | 64 | 1010.7 |
| 20260508133102 | 74 | 190 | 1.0 | 3.0 | 0.00 | 0.00 | 0.00 | 63 | 1010.3 |
| 20260508133028 | 74 | 190 | 1.0 | 3.0 | 0.00 | 0.00 | 0.00 | 64 | 1010.7 |
| 20260508132524 | 74 | 190 | 0.0 | 2.0 | 0.00 | 0.00 | 0.00 | 64 | 1010.6 |
| 20260508132028 | 74 | 190 | 1.0 | 4.0 | 0.00 | 0.00 | 0.00 | 64 | 1010.6 |
| 20260508131607 | 74 | 0 | 1.0 | 4.0 | 0.00 | 0.00 | 0.00 | 63 | 1010.3 |
| 20260508131523 | 74 | 190 | 0.0 | 4.0 | 0.00 | 0.00 | 0.00 | 64 | 1010.6 |
| 20260508131025 | 74 | 190 | 0.0 | 3.0 | 0.00 | 0.00 | 0.00 | 63 | 1010.5 |
| 20260508130523 | 74 | 190 | 0.0 | 0.0 | 0.00 | 0.00 | 0.00 | 64 | 1010.5 |
| 20260508130105 | 74 | 0 | 0.0 | 0.0 | 0.00 | 0.00 | 0.00 | 63 | 1010.2 |
| 20260508130026 | 74 | 190 | 0.0 | 0.0 | 0.00 | 0.00 | 0.00 | 64 | 1010.4 |
| 20260508125522 | 74 | 190 | 0.0 | 0.0 | 0.00 | 0.00 | 0.00 | 64 | 1010.3 |
| 20260508125021 | 73 | 190 | 0.0 | 0.0 | 0.00 | 0.00 | 0.00 | 65 | 1010.4 |
| 20260508124558 | 73 | 0 | 0.0 | 0.0 | 0.00 | 0.00 | 0.00 | 65 | 1010.2 |
| 20260508124521 | 73 | 190 | 0.0 | 0.0 | 0.00 | 0.00 | 0.00 | 65 | 1010.4 |
| 20260508124021 | 73 | 190 | 0.0 | 0.0 | 0.00 | 0.00 | 0.00 | 66 | 1010.3 |
| 20260508123521 | 73 | 190 | 0.0 | 2.0 | 0.00 | 0.00 | 0.00 | 66 | 1010.3 |
| 20260508123058 | 72 | 0 | 0.0 | 3.0 | 0.00 | 0.00 | 0.00 | 65 | 1009.9 |
| 20260508123021 | 72 | 190 | 0.0 | 3.0 | 0.00 | 0.00 | 0.00 | 66 | 1010.2 |
| 20260508122519 | 72 | 190 | 0.0 | 3.0 | 0.00 | 0.00 | 0.00 | 66 | 1010.2 |
| 20260508122019 | 72 | 190 | 0.0 | 4.0 | 0.00 | 0.00 | 0.00 | 66 | 1010.1 |
| 20260508121610 | 73 | 0 | 2.0 | 4.0 | 0.00 | 0.00 | 0.00 | 65 | 1009.8 |
| 20260508121517 | 73 | 190 | 1.0 | 4.0 | 0.00 | 0.00 | 0.00 | 65 | 1010.0 |
| 20260508121016 | 73 | 190 | 0.0 | 3.0 | 0.00 | 0.00 | 0.00 | 65 | 1009.9 |
| 20260508120515 | 73 | 190 | 0.0 | 2.0 | 0.00 | 0.00 | 0.00 | 64 | 1009.9 |
| 20260508120058 | 73 | 190 | 0.0 | 1.0 | 0.00 | 0.00 | 0.00 | 63 | 1009.6 |
| 20260508120015 | 73 | 190 | 0.0 | 2.0 | 0.00 | 0.00 | 0.00 | 63 | 1009.9 |
| 20260508115513 | 74 | 190 | 0.0 | 0.0 | 0.00 | 0.00 | 0.00 | 64 | 1009.8 |
| 20260508115013 | 74 | 190 | 0.0 | 0.0 | 0.00 | 0.00 | 0.00 | 64 | 1009.7 |
| 20260508114558 | 74 | 0 | 0.0 | 0.0 | 0.00 | 0.00 | 0.00 | 63 | 1009.4 |
| 20260508114513 | 74 | 190 | 0.0 | 0.0 | 0.00 | 0.00 | 0.00 | 63 | 1009.7 |
| 20260508114012 | 74 | 190 | 0.0 | 0.0 | 0.00 | 0.00 | 0.00 | 63 | 1009.7 |
| 20260508113512 | 74 | 190 | 0.0 | 0.0 | 0.00 | 0.00 | 0.00 | 63 | 1009.7 |